When you browse on this site, cookies collect data to enhance your experience and personalize the content and advertising you see.
Visit our Privacy Policy to learn more. By continuing to use the site, you agree to this use of cookies and data.

Hourly Weather Batina

Today, 14 July, Tuesday

Time Temperature Precipitation Wind Pressure Humidity
00:00 +24°C° 0 mm 1 mps 672 mmHg 46%
01:00 +24°C° 0 mm 1 mps 671 mmHg 49%
02:00 +23°C° 0 mm 1 mps 671 mmHg 51%
03:00 +23°C° 0 mm 1 mps 670 mmHg 54%
04:00 +23°C° 0 mm 1 mps 671 mmHg 52%
05:00 +24°C° 0 mm 1 mps 671 mmHg 50%
06:00 +22°C° 0 mm 0 mps 671 mmHg 48%
07:00 +26°C° 0 mm 1 mps 672 mmHg 43%
08:00 +27°C° 0 mm 1 mps 672 mmHg 39%
09:00 +29°C° 0 mm 2 mps 673 mmHg 34%
10:00 +30°C° 0 mm 2 mps 673 mmHg 32%
11:00 +31°C° 0 mm 3 mps 672 mmHg 30%
12:00 +33°C° 0 mm 3 mps 672 mmHg 27%
13:00 +33°C° 0 mm 3 mps 672 mmHg 28%
14:00 +33°C° 0 mm 3 mps 671 mmHg 28%
15:00 +33°C° 0 mm 3 mps 671 mmHg 28%
16:00 +31°C° 0.1 mm 3 mps 671 mmHg 30%
17:00 +30°C° 0.1 mm 3 mps 671 mmHg 31%
18:00 +30°C° 0.1 mm 3 mps 670 mmHg 33%
19:00 +28°C° 0 mm 3 mps 670 mmHg 38%
20:00 +27°C° 0 mm 3 mps 670 mmHg 44%
21:00 +25°C° 0 mm 3 mps 670 mmHg 49%
22:00 +25°C° 0 mm 2 mps 670 mmHg 52%
23:00 +24°C° 0 mm 2 mps 670 mmHg 54%

Tomorrow, 15 July, Wednesday

Time Temperature Precipitation Wind Pressure Humidity
00:00 +23°C° 0 mm 2 mps 670 mmHg 57%
01:00 +23°C° 0 mm 1 mps 670 mmHg 58%
02:00 +22°C° 0 mm 1 mps 669 mmHg 60%
03:00 +22°C° 0 mm 1 mps 669 mmHg 61%
04:00 +22°C° 0 mm 1 mps 670 mmHg 58%
05:00 +23°C° 0 mm 1 mps 670 mmHg 55%
06:00 +24°C° 0 mm 1 mps 671 mmHg 52%
07:00 +26°C° 0 mm 2 mps 671 mmHg 44%
08:00 +28°C° 0 mm 3 mps 672 mmHg 37%
09:00 +30°C° 0 mm 4 mps 673 mmHg 29%
10:00 +32°C° 0 mm 4 mps 673 mmHg 28%
11:00 +33°C° 0 mm 5 mps 673 mmHg 26%
12:00 +34°C° 0 mm 5 mps 673 mmHg 25%
13:00 +34°C° 0 mm 5 mps 673 mmHg 24%
14:00 +34°C° 0 mm 4 mps 672 mmHg 24%
15:00 +34°C° 0 mm 4 mps 672 mmHg 23%
16:00 +33°C° 0 mm 4 mps 672 mmHg 28%
17:00 +32°C° 0 mm 5 mps 672 mmHg 34%
18:00 +30°C° 0 mm 6 mps 672 mmHg 39%
19:00 +28°C° 0.2 mm 5 mps 672 mmHg 47%
20:00 +26°C° 0.2 mm 5 mps 672 mmHg 55%
21:00 +23°C° 0.2 mm 4 mps 672 mmHg 63%
22:00 +23°C° 0 mm 4 mps 672 mmHg 63%
23:00 +22°C° 0 mm 3 mps 672 mmHg 63%

Day after tomorrow, 16 July, Thursday

Time Temperature Precipitation Wind Pressure Humidity
00:00 +22°C° 0 mm 3 mps 671 mmHg 63%
01:00 +23°C° 0 mm 2 mps 671 mmHg 63%
02:00 +21°C° 0 mm 2 mps 671 mmHg 64%
03:00 +21°C° 0 mm 2 mps 671 mmHg 65%
04:00 +23°C° 0 mm 1 mps 671 mmHg 62%
05:00 +23°C° 0 mm 1 mps 672 mmHg 59%
06:00 +24°C° 0 mm 1 mps 672 mmHg 57%
07:00 +25°C° 0 mm 1 mps 673 mmHg 52%
08:00 +27°C° 0 mm 2 mps 673 mmHg 47%
09:00 +29°C° 0 mm 2 mps 674 mmHg 42%
10:00 +30°C° 0 mm 3 mps 674 mmHg 38%
11:00 +32°C° 0 mm 4 mps 674 mmHg 34%
12:00 +34°C° 0 mm 4 mps 674 mmHg 30%
13:00 +34°C° 0 mm 5 mps 674 mmHg 29%
14:00 +34°C° 0 mm 5 mps 673 mmHg 28%
15:00 +35°C° 0 mm 5 mps 673 mmHg 27%
16:00 +33°C° 0.1 mm 5 mps 673 mmHg 31%
17:00 +32°C° 0.1 mm 4 mps 672 mmHg 34%
18:00 +30°C° 0.1 mm 4 mps 672 mmHg 38%
19:00 +28°C° 0 mm 4 mps 672 mmHg 45%
20:00 +27°C° 0 mm 4 mps 672 mmHg 51%
21:00 +25°C° 0 mm 4 mps 672 mmHg 58%
22:00 +24°C° 0 mm 3 mps 672 mmHg 59%
23:00 +24°C° 0 mm 3 mps 671 mmHg 61%

17 July, Friday

Time Temperature Precipitation Wind Pressure Humidity
00:00 +23°C° 0 mm 2 mps 671 mmHg 62%
01:00 +23°C° 0 mm 2 mps 671 mmHg 64%
02:00 +21°C° 0 mm 2 mps 671 mmHg 65%
03:00 +21°C° 0 mm 2 mps 670 mmHg 67%
04:00 +21°C° 0 mm 2 mps 671 mmHg 66%
05:00 +22°C° 0 mm 1 mps 671 mmHg 65%
06:00 +22°C° 0 mm 1 mps 671 mmHg 65%
07:00 +23°C° 0 mm 2 mps 671 mmHg 60%
08:00 +25°C° 0 mm 2 mps 672 mmHg 55%
09:00 +26°C° 0 mm 2 mps 672 mmHg 50%
10:00 +27°C° 0 mm 3 mps 672 mmHg 45%
11:00 +29°C° 0 mm 3 mps 672 mmHg 41%
12:00 +30°C° 0 mm 4 mps 672 mmHg 36%
13:00 +30°C° 0 mm 4 mps 672 mmHg 35%
14:00 +32°C° 0 mm 4 mps 672 mmHg 33%
15:00 +32°C° 0 mm 4 mps 672 mmHg 32%
16:00 +30°C° 0 mm 5 mps 671 mmHg 34%
17:00 +29°C° 0 mm 5 mps 671 mmHg 36%
18:00 +28°C° 0 mm 5 mps 671 mmHg 38%
19:00 +26°C° 0 mm 5 mps 671 mmHg 46%
20:00 +25°C° 0 mm 4 mps 671 mmHg 54%
21:00 +22°C° 0 mm 4 mps 671 mmHg 62%
22:00 +21°C° 0 mm 4 mps 671 mmHg 64%
23:00 +20°C° 0 mm 3 mps 671 mmHg 66%

18 July, Saturday

Time Temperature Precipitation Wind Pressure Humidity
00:00 +20°C° 0 mm 3 mps 671 mmHg 69%
01:00 +19°C° 0 mm 2 mps 670 mmHg 70%
02:00 +19°C° 0 mm 2 mps 670 mmHg 72%
03:00 +19°C° 0 mm 1 mps 670 mmHg 73%
04:00 +19°C° 0 mm 1 mps 670 mmHg 72%
05:00 +19°C° 0 mm 1 mps 671 mmHg 71%
06:00 +19°C° 0 mm 1 mps 671 mmHg 69%
07:00 +21°C° 0 mm 1 mps 672 mmHg 61%
08:00 +21°C° 0 mm 2 mps 672 mmHg 52%
09:00 +24°C° 0 mm 2 mps 673 mmHg 44%
10:00 +25°C° 0 mm 3 mps 673 mmHg 38%
11:00 +27°C° 0 mm 3 mps 673 mmHg 32%
12:00 +28°C° 0 mm 4 mps 673 mmHg 26%
13:00 +28°C° 0 mm 4 mps 673 mmHg 25%
14:00 +29°C° 0 mm 4 mps 672 mmHg 24%
15:00 +29°C° 0 mm 4 mps 672 mmHg 23%
16:00 +29°C° 0 mm 4 mps 672 mmHg 25%
17:00 +28°C° 0 mm 4 mps 672 mmHg 27%
18:00 +28°C° 0 mm 4 mps 672 mmHg 29%
19:00 +26°C° 0 mm 4 mps 672 mmHg 37%
20:00 +25°C° 0 mm 3 mps 672 mmHg 45%
21:00 +22°C° 0 mm 3 mps 672 mmHg 53%
22:00 +23°C° 0 mm 2 mps 671 mmHg 57%
23:00 +21°C° 0 mm 2 mps 671 mmHg 61%

19 July, Sunday

Time Temperature Precipitation Wind Pressure Humidity
00:00 +20°C° 0 mm 2 mps 671 mmHg 64%
01:00 +21°C° 0 mm 1 mps 671 mmHg 66%
02:00 +20°C° 0 mm 1 mps 670 mmHg 67%
03:00 +20°C° 0 mm 1 mps 670 mmHg 69%
04:00 +20°C° 0 mm 1 mps 671 mmHg 65%
05:00 +19°C° 0 mm 0 mps 671 mmHg 62%
06:00 +20°C° 0 mm 0 mps 672 mmHg 59%
07:00 +23°C° 0 mm 1 mps 672 mmHg 52%
08:00 +25°C° 0 mm 2 mps 673 mmHg 45%
09:00 +27°C° 0 mm 2 mps 673 mmHg 38%
10:00 +28°C° 0 mm 3 mps 674 mmHg 32%
11:00 +30°C° 0 mm 3 mps 674 mmHg 27%
12:00 +32°C° 0 mm 4 mps 674 mmHg 22%
13:00 +33°C° 0 mm 4 mps 674 mmHg 21%
14:00 +33°C° 0 mm 4 mps 673 mmHg 19%
15:00 +34°C° 0 mm 4 mps 673 mmHg 17%
16:00 +33°C° 0 mm 4 mps 673 mmHg 18%
17:00 +32°C° 0 mm 4 mps 673 mmHg 18%
18:00 +32°C° 0 mm 4 mps 673 mmHg 18%
19:00 +29°C° 0 mm 3 mps 672 mmHg 24%
20:00 +27°C° 0 mm 2 mps 672 mmHg 29%
21:00 +25°C° 0 mm 1 mps 672 mmHg 35%
22:00 +24°C° 0 mm 1 mps 672 mmHg 37%
23:00 +23°C° 0 mm 1 mps 671 mmHg 40%
Show more